Location: Eferding
(48.3167°N, 14.0167°E)
Time: 03:13:07
(UTC+00:00)

Cosmos 1816 Rocket - Visible Passes

Search period start: 28 February 2020 00:00
Search period end: 09 March 2020 00:00
Orbit: 952 x 999 km, 82.9° (Epoch: 27 February)

Date Brightness Start Highest point End Pass type
(mag) Time Alt. Az. Time Alt. Az. Time Alt. Az.
28 Feb 7.8 03:55:17 10° E 03:57:36 12° ENE 03:59:56 10° NE visible
28 Feb 7.2 18:13:48 10° NNW 18:18:30 22° W 18:23:11 10° SW visible
29 Feb 7.2 04:17:52 10° SE 04:22:25 22° E 04:27:01 10° NE visible
29 Feb 7.8 18:40:46 10° NW 18:43:19 13° WNW 18:45:52 10° W visible
01 Mar 6.3 04:41:49 10° SSE 04:47:24 37° E 04:53:04 10° NNE visible
01 Mar 6.1 17:18:23 10° NNW 17:24:20 43° W 17:30:15 10° SSW visible
02 Mar 7.9 03:27:41 10° E 03:28:32 10° ENE 03:29:23 10° ENE visible
02 Mar 5.2 05:06:27 10° S 05:12:33 62° E 05:18:47 10° NNE visible
02 Mar 7.1 17:44:19 10° NNW 17:49:23 25° W 17:54:24 10° SW visible
03 Mar 7.3 03:49:08 10° ESE 03:53:18 19° E 03:57:29 10° NE visible
03 Mar 7.7 18:10:54 10° NW 18:14:14 15° WNW 18:17:33 10° WSW visible
04 Mar 6.5 04:12:50 10° SE 04:18:14 32° E 04:23:42 10° NNE visible
05 Mar 5.4 04:37:18 10° SSE 04:43:20 54° E 04:49:29 10° NNE visible
06 Mar 7.4 03:20:31 10° ESE 03:24:11 16° ENE 03:27:53 10° NE visible
06 Mar 4.6 05:02:21 10° S 05:08:36 89° ESE 05:15:00 10° N visible
06 Mar 7.5 17:41:14 10° NW 17:45:08 17° WNW 17:49:02 10° WSW visible
07 Mar 6.7 03:43:54 10° SE 03:49:04 28° E 03:54:18 10° NNE visible
08 Mar 5.7 04:08:12 10° SSE 04:14:08 47° E 04:20:10 10° NNE visible
